User: anonymous   Login
Location: Barton Flats Campground
(34.1722°N, 116.8753°W)
Time: 13:36:14
(UTC+00:00)
Language:

Cosmos 1709 Rocket - Orbit

View from above orbital plane
View from above orbital plane
View from above satellite
View from above satellite

Ground track
Ground track

The orbit data is extracted from the following two-line orbital elements,

1 16369U 85116B   20294.89120855 +.00000084 +00000-0 +70254-4 0  9995
2 16369 082.9378 159.6453 0036133 341.7763 028.8691 13.76866793750095
Epoch (UTC): 20 October 2020 21:23:20
Eccentricity: 0.0036133
inclination: 82.9378°
perigee height: 948 km
apogee height: 1001 km
right ascension of ascending node: 159.6453°
argument of perigee: 341.7763°
revolutions per day: 13.76866793
mean anomaly at epoch: 28.8691°
orbit number at epoch: 75009

The dashed part of the orbit path shows where the satellite is in the earth's shadow,  

DLR